Weather History for KSPF - January, 2013

Change the Weather History Date:

Sunday, January 20, 2013

  Actual Average (KEFC) Record (KEFC)
Temperature  
Mean Temperature 16 °F -  
Max Temperature 23 °F 36 °F 61 °F (1992)
Min Temperature 8 °F 12 °F -25 °F (1954)
Degree Days  
Heating Degree Days 50    
Moisture  
Dew Point 12 °F    
Average Humidity 83    
Maximum Humidity 93    
Minimum Humidity 59    
Precipitation  
Precipitation 0.40 in - - ()
Sea Level Pressure  
Sea Level Pressure 30.23 in    
Wind  
Wind Speed 8 mph (NW)    
Max Wind Speed 17 mph    
Max Gust Speed 28 mph    
Visibility 9 miles    
Events Snow    
Averages and records for this station are not official NWS values.
T = Trace of Precipitation, MM = Missing Value Source: NWS Daily Summary

Daily Weather History Graph

Daily Weather History Graph

Search for Another Location

Airport or City:

Trip Planner

Search our weather history database for the weather conditions in past years. The results will help you decide how hot, cold, wet, or windy it might be!

Date:

Astronomy

Jan. 20, 2013 Rise Set
Actual Time 8:24 AM CST 5:48 PM CST
Civil Twilight 7:52 AM CST 6:20 PM CST
Nautical Twilight 7:17 AM CST 6:55 PM CST
Astronomical Twilight 6:42 AM CST 7:30 PM CST
Moon 12:51 PM CST (1/20) 2:58 AM CST (1/20)
Length of Visible Light 10h 27m
Length of Day
9h 23m
Waxing Gibbous, 66% of the Moon is Illuminated
Jan 20
Waxing Gibbous
Jan 26
Full
Feb 3
Last Quarter
Feb 10
New
Feb 17
First Quarter

Hourly Weather History & Observations

Time (CST) Temp. Windchill Dew Point Humidity Pressure Visibility Wind Dir Wind Speed Gust Speed Precip Events Conditions
12:15 AM 23.0 °F - 19.4 °F 86% 30.07 in 10.0 mi Calm Calm - N/A   Clear
12:35 AM 23.0 °F - 19.4 °F 86% 30.06 in 10.0 mi Calm Calm - N/A   Clear
12:55 AM 23.0 °F - 19.4 °F 86% 30.05 in 10.0 mi Calm Calm - N/A   Clear
1:15 AM 23.0 °F - 19.4 °F 86% 30.04 in 10.0 mi Calm Calm - N/A   Mostly Cloudy
1:35 AM 23.0 °F - 19.4 °F 86% 30.04 in 10.0 mi Calm Calm - N/A   Mostly Cloudy
1:55 AM 21.2 °F - 17.6 °F 86% 30.03 in 10.0 mi Calm Calm - N/A   Mostly Cloudy
2:15 AM 21.2 °F 16.4 °F 17.6 °F 86% 30.02 in 10.0 mi WSW 3.5 mph - N/A   Overcast
2:35 AM 21.2 °F - 19.4 °F 93% 30.03 in 10.0 mi Calm Calm - N/A   Overcast
2:55 AM 19.4 °F - 17.6 °F 93% 30.03 in 10.0 mi Calm Calm - N/A   Overcast
3:15 AM 19.4 °F 12.8 °F 17.6 °F 93% 30.04 in 10.0 mi NW 4.6 mph - N/A   Mostly Cloudy
3:35 AM 19.4 °F 9.5 °F 17.6 °F 93% 30.05 in 10.0 mi WNW 8.1 mph - N/A   Overcast
3:55 AM 17.6 °F 9.3 °F 15.8 °F 93% 30.06 in 10.0 mi West 5.8 mph - N/A   Overcast
4:15 AM 17.6 °F 7.3 °F 15.8 °F 93% 30.07 in 10.0 mi WNW 8.1 mph - N/A   Overcast
4:35 AM 17.6 °F 5.0 °F 15.8 °F 93% 30.09 in 10.0 mi WNW 11.5 mph - N/A   Overcast
4:55 AM 15.8 °F 5.1 °F 14.0 °F 93% 30.13 in 10.0 mi WNW 8.1 mph - N/A   Overcast
5:15 AM 14.0 °F 2.9 °F 12.2 °F 93% 30.15 in 10.0 mi WNW 8.1 mph - N/A   Overcast
5:55 AM 14.0 °F 3.9 °F 12.2 °F 93% 30.19 in 10.0 mi WNW 6.9 mph - N/A   Overcast
6:15 AM 14.0 °F 3.9 °F 12.2 °F 93% 30.22 in 10.0 mi WNW 6.9 mph - N/A   Overcast
6:35 AM 14.0 °F 2.9 °F 12.2 °F 93% 30.23 in 10.0 mi WNW 8.1 mph - N/A   Overcast
6:55 AM 15.8 °F 5.1 °F 14.0 °F 93% 30.24 in 10.0 mi West 8.1 mph - N/A   Overcast
7:15 AM 15.8 °F 2.7 °F 14.0 °F 93% 30.25 in 10.0 mi NW 11.5 mph - N/A   Overcast
7:35 AM 14.0 °F 0.5 °F 12.2 °F 93% 30.26 in 10.0 mi WNW 11.5 mph - N/A   Overcast
7:55 AM 15.8 °F 2.7 °F 14.0 °F 93% 30.26 in 10.0 mi West 11.5 mph - N/A   Overcast
8:15 AM 15.8 °F 2.7 °F 14.0 °F 93% 30.28 in 10.0 mi WNW 11.5 mph - N/A   Mostly Cloudy
8:35 AM 15.8 °F 2.1 °F 14.0 °F 93% 30.29 in 10.0 mi NW 12.7 mph - N/A   Mostly Cloudy
8:55 AM 17.6 °F 4.3 °F 15.8 °F 93% 30.30 in 10.0 mi NW 12.7 mph - N/A Snow Light Snow
9:15 AM 19.4 °F 6.6 °F 17.6 °F 93% 30.31 in 10.0 mi NW 12.7 mph 21.9 mph N/A Snow Light Snow
9:35 AM 19.4 °F 6.6 °F 17.6 °F 93% 30.31 in 10.0 mi NW 12.7 mph - N/A Snow Light Snow
9:55 AM 19.4 °F 5.5 °F 17.6 °F 93% 30.32 in 10.0 mi WNW 15.0 mph 21.9 mph N/A   Overcast
10:15 AM 21.2 °F 6.8 °F 14.0 °F 74% 30.33 in 10.0 mi WNW 17.3 mph 23.0 mph N/A   Overcast
10:35 AM 21.2 °F 7.3 °F 14.0 °F 74% 30.33 in 10.0 mi NW 16.1 mph 24.2 mph N/A Snow Light Snow
10:55 AM 19.4 °F 5.5 °F 14.0 °F 80% 30.34 in 8.0 mi NW 15.0 mph 20.7 mph N/A Snow Light Snow
11:15 AM 19.4 °F 4.5 °F 14.0 °F 80% 30.34 in 10.0 mi NW 17.3 mph - N/A Snow Light Snow
11:35 AM 21.2 °F 7.3 °F 14.0 °F 74% 30.34 in 10.0 mi NW 16.1 mph 24.2 mph N/A   Mostly Cloudy
11:55 AM 21.2 °F 7.3 °F 14.0 °F 74% 30.33 in 10.0 mi NW 16.1 mph 23.0 mph N/A   Mostly Cloudy
12:15 PM 21.2 °F 7.8 °F 14.0 °F 74% 30.33 in 10.0 mi NW 15.0 mph 24.2 mph N/A   Mostly Cloudy
12:55 PM 23.0 °F 9.2 °F 10.4 °F 59% 30.31 in 10.0 mi NW 17.3 mph 27.6 mph N/A   Scattered Clouds
1:15 PM 23.0 °F 9.6 °F 10.4 °F 59% 30.30 in 10.0 mi NW 16.1 mph - N/A   Scattered Clouds
1:35 PM 23.0 °F 9.2 °F 10.4 °F 59% 30.29 in 10.0 mi NW 17.3 mph 25.3 mph N/A   Scattered Clouds
1:55 PM 21.2 °F 7.8 °F 12.2 °F 68% 30.28 in 10.0 mi NW 15.0 mph 20.7 mph N/A   Scattered Clouds
2:15 PM 21.2 °F 7.3 °F 12.2 °F 68% 30.28 in 10.0 mi NW 16.1 mph 21.9 mph N/A Snow Light Snow
2:35 PM 21.2 °F 7.3 °F 12.2 °F 68% 30.28 in 10.0 mi NW 16.1 mph 21.9 mph N/A Snow Light Snow
2:55 PM 21.2 °F 6.8 °F 10.4 °F 63% 30.28 in 10.0 mi WNW 17.3 mph 23.0 mph N/A   Overcast
3:15 PM 21.2 °F 7.3 °F 10.4 °F 63% 30.28 in 10.0 mi NW 16.1 mph 21.9 mph N/A   Overcast
3:35 PM 19.4 °F 6.0 °F 10.4 °F 68% 30.27 in 10.0 mi NW 13.8 mph 20.7 mph N/A Snow Light Snow
3:55 PM 19.4 °F 5.5 °F 10.4 °F 68% 30.26 in 10.0 mi NW 15.0 mph 19.6 mph N/A   Mostly Cloudy
4:15 PM 19.4 °F 5.0 °F 8.6 °F 63% 30.27 in 10.0 mi NW 16.1 mph 20.7 mph N/A   Mostly Cloudy
4:35 PM 19.4 °F 6.0 °F 10.4 °F 68% 30.26 in 10.0 mi NW 13.8 mph 21.9 mph N/A   Overcast
4:55 PM 17.6 °F 3.2 °F 8.6 °F 68% 30.26 in 10.0 mi NW 15.0 mph 21.9 mph N/A   Mostly Cloudy
5:15 PM 15.8 °F 0.9 °F 10.4 °F 79% 30.26 in 10.0 mi NNW 15.0 mph 19.6 mph N/A   Mostly Cloudy
5:35 PM 15.8 °F 1.4 °F 10.4 °F 79% 30.27 in 10.0 mi NNW 13.8 mph 23.0 mph N/A   Overcast
5:55 PM 14.0 °F -0.2 °F 8.6 °F 79% 30.27 in 10.0 mi NW 12.7 mph - N/A   Overcast
6:15 PM 14.0 °F 2.0 °F 8.6 °F 79% 30.27 in 10.0 mi NW 9.2 mph - N/A Snow Light Snow
6:35 PM 14.0 °F 0.5 °F 8.6 °F 79% 30.28 in 10.0 mi NW 11.5 mph - 0.01 in Snow Light Snow
6:55 PM 12.2 °F -1.8 °F 8.6 °F 85% 30.29 in 10.0 mi NNW 11.5 mph - 0.01 in Snow Light Snow
7:15 PM 10.4 °F -4.1 °F 8.6 °F 92% 30.30 in 8.0 mi NW 11.5 mph 16.1 mph N/A Snow Light Snow
7:35 PM 10.4 °F -3.3 °F 6.8 °F 85% 30.30 in 5.0 mi NNW 10.4 mph - 0.02 in Snow Light Snow
7:55 PM 10.4 °F -3.3 °F 6.8 °F 85% 30.29 in 6.0 mi NW 10.4 mph - 0.04 in Snow Light Snow
8:15 PM 10.4 °F -4.1 °F 6.8 °F 85% 30.30 in 6.0 mi NW 11.5 mph - 0.01 in Snow Light Snow
8:35 PM 10.4 °F -4.8 °F 6.8 °F 85% 30.30 in 5.0 mi NW 12.7 mph - 0.04 in Snow Light Snow
8:55 PM 10.4 °F -4.1 °F 6.8 °F 85% 30.30 in 3.0 mi NW 11.5 mph - 0.10 in Snow Light Snow
9:15 PM 8.6 °F -5.5 °F 5.0 °F 85% 30.29 in 4.0 mi NW 10.4 mph - 0.03 in Snow Light Snow
9:35 PM 8.6 °F -6.3 °F 5.0 °F 85% 30.28 in 5.0 mi NW 11.5 mph - 0.07 in Snow Light Snow
9:55 PM 8.6 °F -6.3 °F 5.0 °F 85% 30.28 in 5.0 mi NW 11.5 mph - 0.11 in Snow Light Snow
10:15 PM 8.6 °F -4.7 °F 5.0 °F 85% 30.28 in 5.0 mi NW 9.2 mph - 0.02 in Snow Light Snow
10:35 PM 8.6 °F -4.7 °F 5.0 °F 85% 30.29 in 5.0 mi WNW 9.2 mph - 0.06 in Snow Light Snow
10:55 PM 8.6 °F -5.5 °F 5.0 °F 85% 30.28 in 4.0 mi NW 10.4 mph - 0.12 in Snow Light Snow
11:15 PM 8.6 °F -4.7 °F 5.0 °F 85% 30.28 in 8.0 mi NW 9.2 mph - 0.01 in Snow Light Snow
11:35 PM 10.4 °F -3.3 °F 6.8 °F 85% 30.27 in 10.0 mi WNW 10.4 mph - 0.02 in Snow Light Snow
11:55 PM 10.4 °F -2.4 °F 5.0 °F 79% 30.28 in 10.0 mi NW 9.2 mph - 0.02 in Snow Light Snow